Theta_e
296 295 294 294 294 294 293 293 293 293 292 292 292 291 290 289 287 286 285 285 283 283 282 281 281 280 280 279 279 278 278 278 278 278 278 278 277 277 277 276 276 277 277
296 295 295 294 293 293 293 293 292 292 291 292 291 290 290 289 287 286 285 284 283 282 281 280 280 279 279 279 278 277 276 276 276 276 276 276 276 276 276 276 277 277 277
295 295 294 293 292 292 292 291 291 290 291 290 290 289 288 287 287 286 285 284 282 282 281 280 279 279 278 277 277 276 276 276 275 275 275 276 276 276 277 277 277 277 277
296 295 293 292 293 292 291 290 290 289 289 289 289 289 287 287 286 285 284 283 282 281 280 280 279 278 278 277 276 276 276 275 275 275 275 276 276 277 277 278 278 277 277
298 294 293 292 291 291 290 290 289 289 288 288 287 286 285 285 285 284 283 282 281 280 279 278 277 277 277 277 276 276 275 275 275 275 276 277 278 278 277 277 277 277 276
295 294 295 293 291 290 289 289 288 287 286 286 285 285 283 282 282 283 283 281 280 279 278 277 277 277 277 277 278 278 278 277 277 276 277 278 277 277 277 276 276 276 277
292 293 293 292 291 289 289 288 286 285 284 284 283 283 282 282 281 281 281 281 280 278 277 277 276 276 276 276 277 278 278 278 279 278 277 277 277 276 276 276 277 277 277
290 290 291 291 290 288 287 286 285 284 283 283 282 281 281 280 282 282 280 279 278 277 277 277 277 276 276 275 275 275 276 276 276 276 276 276 276 276 277 277 277 275 274
289 289 289 290 289 287 285 284 283 283 281 281 281 280 280 279 282 282 280 277 276 276 276 277 277 276 276 277 276 276 276 276 276 277 277 277 277 277 277 275 273 272 272
289 287 288 289 287 285 284 283 282 282 281 281 280 279 279 279 282 283 281 277 277 276 276 276 276 276 276 277 277 276 276 276 276 275 275 275 275 273 273 272 271 271 271
290 289 286 287 286 285 283 282 281 280 280 279 278 278 278 278 281 282 282 278 277 276 276 276 276 277 277 277 277 277 277 276 276 275 274 273 272 271 271 271 271 271 271
289 289 286 285 284 283 282 281 280 279 278 278 277 276 276 277 279 282 282 278 277 276 276 276 276 276 276 276 277 276 275 275 275 273 271 270 270 270 270 271 271 271 271
286 286 286 284 282 282 281 279 278 278 278 277 277 276 275 275 277 281 282 280 278 275 276 276 275 275 276 275 274 273 273 272 270 269 269 269 269 270 270 270 270 270 270
285 285 284 283 281 280 280 279 278 278 278 277 277 276 275 274 275 279 280 281 278 276 276 276 275 274 272 271 271 270 270 270 269 268 268 268 269 269 269 269 269 270 270
278 281 283 281 280 279 279 278 278 278 278 278 278 277 275 274 274 277 279 280 278 275 275 273 271 270 270 270 270 270 269 269 268 268 268 268 268 268 268 269 269 269 270
274 275 280 281 280 278 278 277 279 279 279 280 278 277 276 276 276 277 279 279 277 274 274 271 269 269 269 269 268 268 268 268 267 267 266 266 267 267 267 267 268 269 269
270 272 275 280 280 278 277 278 277 279 280 280 280 278 277 277 277 278 279 278 277 274 271 269 268 268 267 267 267 267 267 267 266 266 266 266 266 266 266 266 268 268 270
269 270 273 275 279 278 277 277 277 277 279 278 280 279 278 277 278 278 278 278 277 270 270 268 268 268 267 267 266 266 266 266 265 265 266 265 265 265 265 266 267 268 269
268 270 272 276 279 277 276 276 275 276 276 277 278 279 278 278 279 278 278 276 269 268 269 267 268 267 267 266 266 266 266 265 264 265 266 265 265 264 265 267 267 268 268
268 270 270 272 277 275 275 274 275 275 276 277 277 278 277 279 279 279 272 270 268 268 267 267 267 267 266 266 266 266 266 265 264 265 265 264 264 264 266 266 268 268 267
268 270 272 275 275 275 274 274 274 275 276 276 277 276 277 279 275 268 269 269 269 268 267 267 266 266 266 266 266 265 265 265 264 265 265 265 264 264 265 267 268 267 267
271 272 273 276 273 273 273 274 274 275 275 275 275 277 277 270 267 266 267 267 268 267 266 266 266 266 266 266 265 266 266 265 266 265 265 265 265 264 265 267 267 266 266
274 274 273 272 272 273 273 274 274 274 273 272 273 269 267 266 266 267 267 266 265 265 266 266 266 266 266 266 265 266 266 266 266 265 265 266 266 265 267 267 266 265 265
270 270 271 271 271 271 270 270 269 268 269 271 267 266 265 265 265 265 265 265 264 264 264 265 265 265 265 265 266 266 266 266 267 267 267 268 267 267 267 266 265 265 265
267 268 268 268 268 268 267 267 267 268 266 265 264 264 264 265 265 264 264 263 263 263 263 264 264 264 265 265 266 267 267 267 267 268 269 268 269 267 267 265 264 264 265
265 265 265 265 265 265 265 266 265 265 264 263 263 264 264 264 264 263 262 262 262 263 263 263 263 264 264 265 266 267 267 267 268 268 269 269 269 267 266 264 264 264 264
Wind_Speed
38 42 41 43 46 47 47 47 47 45 44 43 42 45 47 45 43 40 38 35 32 28 25 23 21 18 17 15 14 14 16 17 11 11 14 15 24 26 28 27 29 32 34
42 40 44 43 43 44 47 50 49 48 45 44 43 45 47 48 46 45 42 39 35 31 28 25 23 21 19 17 16 16 17 17 16 18 15 16 17 23 25 30 29 26 29
33 37 39 41 40 45 46 45 48 47 47 45 45 47 48 50 50 47 45 41 37 33 30 28 26 22 20 18 16 15 14 15 18 19 20 17 21 22 25 26 25 26 26
34 39 40 39 48 48 40 41 46 46 47 46 48 49 49 50 51 49 47 42 37 34 30 28 26 24 20 16 15 13 12 15 18 20 23 22 20 22 22 26 30 28 30
33 34 37 39 38 37 38 43 45 46 47 48 47 46 46 48 51 51 48 44 38 33 30 26 23 20 16 16 15 13 12 15 18 17 21 24 19 22 25 28 32 36 34
28 36 39 37 37 38 37 39 41 42 42 44 46 48 47 46 46 49 48 43 39 35 33 28 23 21 19 15 13 13 14 15 20 20 17 19 25 24 26 28 32 32 15
22 30 33 33 35 36 35 37 37 37 37 39 41 43 44 45 41 39 41 43 40 37 35 30 25 21 18 16 15 15 16 17 20 22 22 22 25 25 28 31 30 32 34
29 25 25 26 27 28 32 34 33 35 39 40 39 41 41 42 39 38 35 40 37 36 33 29 26 22 19 17 14 15 14 18 20 21 22 25 26 26 29 32 32 37 40
28 28 27 23 23 25 28 28 29 30 30 32 36 39 40 39 39 39 37 36 34 34 32 30 26 23 19 17 15 14 16 20 19 18 23 25 29 29 30 34 32 26 27
29 32 25 22 25 25 27 28 27 27 26 26 27 31 34 36 37 37 37 34 29 27 28 26 24 21 18 17 16 14 18 17 17 23 25 22 26 35 30 28 28 25 27
37 31 25 20 20 27 25 23 22 23 21 23 25 29 32 36 39 40 39 33 31 28 27 26 25 20 18 14 13 13 14 15 17 20 26 30 31 31 28 28 27 28 30
37 32 23 17 18 20 22 21 23 23 22 22 22 21 24 30 34 37 36 25 26 28 25 24 23 20 15 13 11 10 11 12 20 22 22 23 22 24 26 26 31 34 37
34 31 28 22 18 19 21 19 18 21 18 17 20 21 22 29 31 31 34 28 25 23 24 21 18 17 15 12 11 8 9 14 14 16 18 19 21 24 29 31 33 36 39
33 31 25 23 21 23 23 22 22 22 22 22 22 21 23 27 32 34 35 32 24 20 20 18 18 16 12 9 9 7 7 8 12 15 18 21 23 24 26 27 30 32 34
33 31 25 20 21 21 24 25 26 27 30 27 27 29 29 28 37 40 36 34 33 32 28 22 18 14 14 11 10 7 7 8 12 13 16 19 21 23 25 27 28 33 30
31 29 26 20 18 21 20 20 28 26 24 28 26 29 26 24 34 41 42 39 35 33 29 25 18 17 14 12 8 6 7 8 11 12 16 18 20 21 27 31 29 29 30
31 30 26 24 22 19 19 19 11 25 24 27 26 28 25 27 34 41 41 38 36 31 25 23 18 18 14 11 8 7 8 11 13 13 16 21 21 21 25 29 31 30 32
31 31 29 28 23 21 21 20 19 16 13 21 26 25 27 28 36 39 38 34 31 23 26 26 26 22 17 12 10 8 9 13 15 15 18 23 25 23 26 27 30 29 33
32 29 27 27 23 22 21 20 19 18 18 17 20 26 28 30 38 41 41 29 27 27 27 27 24 20 16 13 9 7 10 14 18 16 19 23 26 23 26 29 31 35 37
34 34 32 29 18 19 18 19 18 19 19 21 23 25 29 34 37 36 28 30 28 28 30 25 21 17 14 12 7 6 9 15 18 17 20 24 27 24 25 29 31 34 35
31 28 27 27 17 18 18 19 19 20 20 20 23 28 36 33 24 27 33 31 32 29 27 23 19 16 13 9 6 6 9 15 18 19 22 25 27 27 27 27 34 35 36
29 24 23 18 17 17 17 18 20 20 20 21 19 28 31 26 25 27 30 31 29 25 22 19 15 12 9 7 6 6 10 16 19 21 23 26 29 28 24 29 34 34 36
14 14 13 12 15 16 17 16 16 16 16 20 26 20 24 25 26 29 28 26 24 21 19 16 13 9 8 6 5 8 12 15 20 22 24 26 30 29 24 30 33 34 34
11 11 12 12 12 12 14 14 16 20 20 22 20 21 25 28 29 28 26 23 20 17 14 11 10 9 8 7 7 9 12 16 20 22 22 28 30 27 26 30 32 35 36
15 14 14 14 15 15 17 18 19 20 19 21 22 25 27 28 27 24 22 19 17 13 11 8 7 8 9 9 8 10 12 15 19 20 23 28 28 27 30 30 32 34 35
16 16 16 16 16 15 16 16 17 18 19 20 23 25 27 27 24 22 20 16 13 10 8 8 8 8 8 9 8 11 13 15 18 19 24 26 28 26 30 32 32 31 33
Wind_Direction
229 225 221 222 224 223 225 227 227 224 222 219 218 217 215 213 213 212 213 211 212 213 214 214 215 213 213 215 219 227 231 234 251 274 267 275 289 305 313 311 313 316 315
234 229 229 226 224 221 223 227 225 223 222 220 216 216 215 214 213 212 212 211 211 210 211 211 215 211 214 217 223 230 243 250 250 281 280 285 297 305 307 313 315 307 300
238 237 231 226 223 224 223 223 224 222 222 217 215 214 214 213 213 212 214 213 213 214 213 212 214 212 216 219 226 236 250 263 266 270 289 299 303 308 311 307 307 303 299
253 237 227 223 227 225 220 220 224 223 220 218 217 215 215 212 211 210 211 212 214 214 215 217 217 217 219 224 229 239 256 263 271 270 283 296 303 312 307 314 312 309 306
269 249 242 238 229 222 221 222 223 222 221 220 214 213 214 212 208 208 209 209 209 211 212 215 218 219 223 226 226 235 244 261 265 278 288 299 311 319 318 317 309 310 308
279 250 251 241 235 224 216 215 215 213 213 213 211 209 206 206 205 207 209 205 206 209 209 210 212 213 209 208 214 231 245 257 267 263 278 295 301 308 312 311 306 309 309
308 275 257 246 229 221 213 211 206 205 205 205 205 203 202 204 199 193 200 205 204 206 209 207 205 209 209 214 214 225 237 244 256 270 277 280 294 298 301 299 297 294 294
329 315 287 258 242 229 216 207 202 200 203 201 201 201 201 202 192 187 183 200 202 204 205 205 204 203 205 210 217 227 246 267 269 269 272 282 285 289 292 293 298 299 296
330 330 314 276 247 229 214 206 203 197 199 199 198 196 197 193 188 185 181 189 193 195 198 202 201 200 200 201 217 231 256 262 273 276 282 285 290 293 292 299 295 300 293
328 325 321 298 261 237 227 213 206 200 200 197 194 195 193 190 187 188 186 182 181 180 189 201 201 203 197 194 216 236 254 267 285 294 297 293 293 295 294 284 284 281 285
321 329 318 295 264 252 235 219 207 196 191 188 186 189 191 197 188 189 192 183 181 181 179 187 196 199 195 203 218 237 257 283 288 279 285 294 298 300 297 292 280 272 278
310 313 302 282 261 245 231 208 197 188 177 175 173 173 184 191 190 191 193 191 192 182 179 186 194 190 192 201 221 252 263 272 270 280 289 296 294 291 291 287 283 278 274
300 294 294 281 255 239 217 195 175 179 183 187 186 181 179 185 191 195 193 186 192 190 187 194 187 185 186 200 205 211 239 255 273 286 289 286 286 291 292 290 286 284 282
304 284 273 260 240 225 214 208 191 189 195 193 196 197 186 177 183 184 186 188 185 186 181 181 188 190 194 196 199 200 234 259 271 280 282 287 290 293 292 293 290 290 291
295 291 278 246 233 220 215 206 213 208 202 204 209 196 182 187 189 181 177 178 170 176 173 177 182 185 185 191 202 219 250 275 276 287 280 288 293 298 300 301 295 294 291
290 286 285 253 234 224 219 217 221 228 220 222 214 203 205 204 186 183 181 180 174 166 171 177 184 189 185 190 200 235 262 273 287 297 291 291 290 301 306 305 298 296 295
279 281 282 270 237 220 219 216 214 220 221 220 213 209 201 192 191 186 182 178 170 165 171 179 181 180 187 192 194 226 262 286 300 307 312 305 296 300 303 299 302 302 300
277 279 276 273 239 218 215 219 209 204 197 201 209 208 201 192 186 183 180 175 171 167 175 179 178 179 186 192 201 229 270 291 301 311 323 314 309 302 301 298 302 302 305
283 277 275 273 244 214 209 204 197 193 194 188 182 198 187 189 183 178 178 174 158 167 183 189 181 178 179 197 212 242 279 295 297 315 324 319 309 300 297 300 301 305 304
279 271 263 264 234 204 198 195 190 188 188 185 181 178 174 177 179 178 158 160 163 176 183 181 179 178 183 203 206 258 289 296 301 320 326 319 309 297 298 301 309 308 306
273 265 254 255 210 203 193 194 188 186 189 182 178 173 176 179 162 147 159 167 176 180 179 180 180 183 188 199 215 256 287 295 307 322 325 321 311 298 307 304 311 308 305
269 250 247 217 186 184 185 186 184 183 173 164 156 175 167 140 142 149 163 173 177 180 177 178 181 186 191 206 233 272 300 301 314 321 321 319 315 307 305 314 316 312 309
267 215 175 162 168 172 173 172 162 154 145 146 154 130 128 137 147 158 162 167 170 175 176 179 184 195 211 229 266 292 301 312 318 319 316 320 318 310 308 319 316 313 311
73 93 113 125 132 124 120 119 113 125 135 146 126 128 133 145 155 158 161 164 173 179 179 186 200 217 233 251 274 295 311 318 319 321 323 324 315 305 311 319 316 314 313
65 73 83 94 103 109 111 114 119 126 123 124 125 135 147 152 151 155 161 169 177 180 186 200 224 243 254 268 285 305 308 314 314 326 333 322 309 317 322 319 313 316 319
68 72 77 86 93 101 109 113 116 121 122 126 135 143 152 153 155 162 169 174 177 182 195 216 234 256 280 284 281 301 304 311 317 330 321 318 326 320 329 325 318 323 325